DW2465 Weather Reports


Display with metric or nautical units.
time (UTC)temp
F
wind
direction
speed
MPH
gust
MPH
rain 1hr
in
rain 24hr
in
rain mn
in
humidity
%
barometer
mb
20180919132231 57 22 3.0 8.0 0.00 0.08 0.00 97 1015.7
20180919130731 57 355 3.0 8.0 0.00 0.08 0.00 97 1015.6
20180919125227 57 17 4.0 8.0 0.00 0.08 0.00 97 1015.7
20180919123726 57 13 4.0 9.0 0.00 0.08 0.00 97 1015.5
20180919122225 58 61 1.0 4.0 0.00 0.08 0.00 97 1015.3
20180919120723 58 21 3.0 5.0 0.00 0.08 0.00 97 1014.9
20180919115222 58 18 1.0 10.0 0.00 0.08 0.00 97 1014.6
20180919113719 58 5 6.0 10.0 0.00 0.08 0.00 97 1014.3
20180919112220 59 34 4.0 6.0 0.00 0.08 0.00 97 1014.3
20180919110721 59 61 1.0 5.0 0.00 0.08 0.00 97 1014.4
20180919105217 59 52 1.0 4.0 0.00 0.08 0.00 97 1013.7
20180919103718 59 53 1.0 6.0 0.00 0.08 0.00 97 1014.0
20180919102216 59 19 3.0 6.0 0.00 0.08 0.00 97 1013.6
20180919100714 59 65 3.0 5.0 0.00 0.08 0.00 97 1013.3
20180919095214 59 71 2.0 8.0 0.00 0.08 0.00 97 1013.9
20180919093713 59 48 2.0 10.0 0.00 0.08 0.00 96 1013.5
20180919092211 58 42 1.0 9.0 0.00 0.08 0.00 96 1013.9
20180919090711 59 5 4.0 10.0 0.00 0.08 0.00 96 1013.9
20180919085206 59 18 3.0 9.0 0.00 0.08 0.00 96 1014.3
20180919083704 59 16 3.0 8.0 0.00 0.08 0.00 96 1014.4
20180919082201 59 37 0.0 4.0 0.00 0.08 0.00 96 1014.7
20180919080701 59 38 2.0 5.0 0.00 0.08 0.00 96 1014.9
20180919075201 59 46 2.0 5.0 0.00 0.11 0.00 96 1015.0
20180919073702 59 46 3.0 5.0 0.00 0.11 0.00 96 1015.3
20180919072201 59 59 0.0 4.0 0.00 0.11 0.00 96 1015.4
20180919070659 59 59 1.0 4.0 0.00 0.11 0.00 96 1015.3
20180919065154 59 59 2.0 4.0 0.00 0.11 0.00 96 1015.4
20180919063653 59 60 1.0 5.0 0.00 0.11 0.00 95 1015.2
20180919062147 59 65 1.0 3.0 0.00 0.11 0.00 95 1014.9
20180919060653 59 65 1.0 6.0 0.00 0.11 0.00 95 1014.8
20180919055150 59 31 3.0 6.0 0.00 0.12 0.00 95 1014.8
20180919053646 59 30 2.0 6.0 0.00 0.12 0.00 95 1014.8
20180919052147 59 28 0.0 4.0 0.01 0.12 0.00 95 1014.7
20180919050641 59 28 0.0 3.0 0.01 0.12 0.00 95 1014.9
20180919045138 59 28 1.0 5.0 0.01 0.12 0.12 94 1014.9
20180919043638 60 28 3.0 6.0 0.01 0.12 0.12 94 1014.7
20180919042137 60 57 0.0 3.0 0.00 0.11 0.11 94 1014.8
20180919040637 59 57 1.0 4.0 0.00 0.11 0.11 94 1014.9
20180919035136 59 57 0.0 6.0 0.00 0.11 0.11 94 1015.0
20180919033637 59 61 2.0 5.0 0.00 0.11 0.11 93 1015.0
20180919032135 59 20 2.0 5.0 0.00 0.11 0.11 93 1015.1
20180919030635 59 15 2.0 6.0 0.00 0.11 0.11 93 1015.2
20180919025135 60 46 2.0 4.0 0.00 0.11 0.11 93 1015.2
20180919023633 60 65 2.0 6.0 0.00 0.11 0.11 93 1014.5
20180919022133 60 98 4.0 9.0 0.00 0.11 0.11 93 1014.1
20180919020634 59 44 2.0 12.0 0.00 0.11 0.11 93 1014.2
20180919015133 59 77 3.0 8.0 0.00 0.11 0.11 93 1014.3
20180919013633 59 35 2.0 8.0 0.00 0.11 0.11 93 1014.5
20180919012132 59 58 2.0 6.0 0.00 0.11 0.11 93 1014.7
20180919010631 59 31 3.0 9.0 0.00 0.11 0.11 93 1014.6
20180919005130 59 82 2.0 9.0 0.00 0.11 0.11 93 1014.3
20180919003629 59 23 6.0 10.0 0.00 0.11 0.11 93 1014.1
20180919002130 60 37 4.0 11.0 0.00 0.11 0.11 93 1014.3
20180919000628 60 57 4.0 9.0 0.00 0.11 0.11 93 1014.3
20180918235129 60 47 2.0 9.0 0.00 0.12 0.11 92 1014.2
20180918233628 60 360 4.0 9.0 0.00 0.12 0.11 92 1014.3
20180918232128 60 29 4.0 9.0 0.00 0.12 0.11 92 1014.2
20180918230626 61 41 4.0 9.0 0.00 0.12 0.11 91 1014.3
20180918225125 61 63 2.0 8.0 0.00 0.15 0.11 91 1014.2
20180918223626 61 36 2.0 5.0 0.00 0.15 0.11 91 1013.9
20180918222124 61 341 2.0 8.0 0.00 0.15 0.11 92 1013.8
20180918220631 61 33 5.0 9.0 0.00 0.15 0.11 91 1013.7
20180918215127 61 17 4.0 9.0 0.00 0.15 0.11 90 1013.8
20180918213626 61 49 6.0 11.0 0.00 0.15 0.11 90 1013.9
20180918212129 61 40 1.0 8.0 0.00 0.15 0.11 90 1013.9
20180918202122 61 348 4.0 6.0 0.00 0.24 0.11 91 1014.2
20180918200622 61 325 4.0 8.0 0.00 0.24 0.11 91 1014.0
20180918195118 61 28 3.0 5.0 0.00 0.49 0.11 90 1014.1
20180918193618 62 55 0.0 3.0 0.00 0.49 0.11 90 1014.3
20180918192120 62 55 0.0 3.0 0.00 0.49 0.11 89 1014.4
20180918190616 62 56 0.0 2.0 0.00 0.49 0.11 89 1014.2
20180918185115 62 55 1.0 8.0 0.00 0.62 0.11 91 1013.8
20180918183613 61 72 2.0 5.0 0.00 0.62 0.11 92 1013.7
20180918182110 61 65 3.0 5.0 0.00 0.62 0.11 93 1014.0
20180918180610 60 81 2.0 4.0 0.00 0.62 0.11 95 1014.1
20180918175107 60 94 0.0 4.0 0.00 0.62 0.11 95 1014.3
20180918173606 59 132 0.0 3.0 0.00 0.62 0.11 96 1014.3
20180918172112 59 123 3.0 9.0 0.00 0.62 0.11 96 1014.6
20180918170604 59 112 3.0 8.0 0.00 0.62 0.11 96 1014.4
20180918165108 59 43 1.0 9.0 0.00 0.62 0.11 97 1013.6
20180918163603 58 85 2.0 12.0 0.00 0.62 0.11 97 1013.4
20180918162103 57 43 5.0 13.0 0.00 0.62 0.11 96 1013.5
20180918160603 58 11 7.0 12.0 0.00 0.62 0.11 96 1013.6
20180918155238 58 360 5.0 14.0 0.00 0.62 0.11 96 1013.9
20180918153606 58 351 5.0 12.0 0.00 0.62 0.11 97 1013.9
20180918152101 58 312 6.0 15.0 0.00 0.62 0.11 97 1013.6
20180918150604 58 105 5.0 12.0 0.00 0.62 0.11 97 1011.4
20180918145103 58 69 3.0 6.0 0.01 0.62 0.11 97 1011.8
20180918143603 57 57 2.0 4.0 0.02 0.62 0.11 97 1013.5
20180918140557 57 279 1.0 3.0 0.07 0.62 0.11 97 1014.2
20180918135057 57 284 2.0 8.0 0.06 0.61 0.10 97 1014.8
20180918133559 57 265 4.0 12.0 0.05 0.60 0.09 97 1015.4